Regional Weather Roundup
Issued by NWS State College, PA

Home | Current Version | Previous Version | Text Only | Print | Product List | Glossary On
Versions: 1 2 3 4 5 6 7 8 9 10 11 12 13 14 15 16 17 18 19 20 21 22 23 24 25 26 27 28 29 30 31 32 33 34 35 36 37 38 39 40 41 42 43 44 45 46 47 48 49 50
000
ASUS41 KCTP 280910
RWRCTP

REGIONAL WEATHER ROUNDUP
NATIONAL WEATHER SERVICE STATE COLLEGE PA
500 AM EDT TUE APR 28 2015

Note: "fair" indicates few or no clouds below 12,000 feet with no
significant weather and/or obstructions to visibility.

* = STATION THAT DOES NOT REPORT PRECIPITATION /E.G. RAIN...SNOW...ETC/
    THUNDER OR FOG.

PAZ002>004-007>009-013>016-020>023-029>032-281000-
WESTERN PENNSYLVANIA

CITY           SKY/WX    TMP DP  RH WIND       PRES   REMARKS
ERIE           CLEAR     34  31  88 SW3       30.03S
MEADVILLE      CLEAR     38  33  82 CALM      30.00S
FRANKLIN*      CLEAR     37  30  75 NW3       30.00F
NEW CASTLE     FAIR      39  36  89 CALM      30.02F
BEAVER COUNTY  NOT AVBL
BUTLER*        CLEAR     37  34  87 CALM      30.01S
PITTSBURGH INT PTCLDY    39  35  86 W6        30.01S
PITTSBURGH     CLEAR     39  33  79 NW9       29.99F
INDIANA*       CLOUDY    39  37  93 W3        30.02S
LATROBE        CLOUDY    41  39  93 CALM      30.02F
WASHINGTON CO* MOCLDY    39  34  81 CALM      30.02F
$$

PAZ004>006-010>012-017>019-024>028-033>037-041-042-045-046-049>053-281000-
CENTRAL PENNSYLVANIA

CITY           SKY/WX    TMP DP  RH WIND       PRES   REMARKS
BRADFORD       CLEAR     35  32  88 NW9       29.95R
DUBOIS         CLEAR     38  34  85 W6        29.95S
CLEARFIELD     CLEAR     40  34  79 W5        29.95S
JOHNSTOWN      CLOUDY    38  35  89 NW9       29.94S
ALTOONA        MOCLDY    42  35  76 NW8       29.95R
STATE COLLEGE  CLOUDY    44  36  75 CALM      29.92S
WILLIAMSPORT   PTCLDY    47  37  68 W8        29.89R
SELINSGROVE    MOCLDY    48  37  65 NW10      29.88S
FT INDIANTOWN  PTCLDY    49  37  62 VRB7      29.84S
CAPITAL CITY   CLOUDY    47  37  68 NW6       29.87S
HARRISBURG     MOCLDY    49  38  65 NW10      29.86S
YORK           MOCLDY    46  37  71 W7        29.87S
$$

PAZ038>040-043-044-047-048-054-055-060>062-067>071-281000-
EASTERN PENNSYLVANIA

CITY           SKY/WX    TMP DP  RH WIND       PRES   REMARKS
SCRANTON       CLOUDY    47  40  76 N5        29.83S
MOUNT POCONO   CLOUDY    43  38  82 NW15G25   29.77S
ALLENTOWN      PTCLDY    49  40  71 NW8G16    29.80S
QUAKERTOWN*    CLOUDY    48  41  76 N8        29.81S
READING        CLOUDY    50  38  63 NW13      29.83R
LANCASTER      CLOUDY    47  38  71 W9        29.84S
COATESVILLE    CLOUDY    48  39  71 NW13      29.83R
POTTSTOWN      CLOUDY    48  39  71 NW8       29.82S
BLUE BELL      MOCLDY    50  41  71 NW6       29.80R
DOYLESTOWN     PTCLDY    47  40  76 NW10      29.78S
WILLOW GROVE   NOT AVBL
NORTH PHILA    CLOUDY    51  38  60 NW10      29.80S
PHILADELPHIA   CLOUDY    52  38  58 NW12      29.81S
$$


USA.gov is the U.S. government's official web portal to all federal, state and local government web resources and services.